Showing default

TELSTAR 303, 15826

Orbit data source: Space-Track

TELSTAR 303, 15826 is a payload satellite owned by AT&T Skynet (US) in GEO that was launched on Mon, 17 Jun 1985 UTC via an SPACE SHUTTLE launch vehicle from the Air Force Eastern Test Range (AFETR). Payload-class satellites include a variety of spacecraft equipped with specific instruments for various scientific and technological missions. These include communications satellites like Starlink; space stations such as the ISS; scientific satellites like the Hubble; Earth observation satellites from companies like Planet Labs, Umbra, and HawkEye 360; GPS; miniature CubeSats for education and research; and military/defense satellites.

Not visible in the next 10 days
Identifier
15826, 1985-048D
Orbit
GEO
Country
Flag of USUS
Related business
Manufacturer
Hughes
Mission
Spacecraft
Bus & Motor
HS-376, TE-M-700-17
Mass
1,223 kg wet, ~522 kg dry
Launch date (UTC)
1985-06-17 (41 years ago)
Launch vehicle
SPACE SHUTTLE
Launch site
Air Force Eastern Test Range (AFETR)
Object type
Payload
Rocket body
Debris
Shape & HBR
Unknown
Radar Cross Section
Large (>1 m²)

Expand to show TLE details & history
Last TLE update: 2 days ago

TLE from 2 days ago
0 TELSTAR 303
1 15826U 85048D   26093.56323235 -.00000306  00000-0  00000+0 0  9995
2 15826  14.2372 346.8370 0003597 286.7900 268.0344  0.99885391 45750
Epoch: 2026-04-03T13:31Z
TLE epoch observation values (Epoch: 2026-04-03T13:31:03.275Z)
Latitude
-3.60996°
Longitude
146.55078°
Altitude
35,895.857 km
Speed
3.071 km/s
True Right ascension
12h 04m 50s
True Declination
-3° 36' 23"
Sunlit
Object was in daylight at epoch
Visualization orbit readout
Latitude
Unknown
Longitude
Unknown
Altitude
Unknown
Speed
Unknown
Apparent Right ascension
Unknown
Apparent Declination
Unknown
Sunlit
N/A
Visualization observer readout
Local Sidereal Time
07:44:19
Azimuth
Unknown
Elevation
Unknown
Doppler factor
Unknown
Orbital elements
Apogee altitude
35,911.444 km
Perigee altitude
35,881.031 km
Semi-major axis
42,274.374 km
Eccentricity
0.00036
Inclination
14.2372°
RAAN
346.837°
Arg. of periapsis
286.79°
True anomaly
267.99321°
Mean anomaly
268.0344°
Eccentric anomaly
268.0138°
Mean motion
0.24971 °/min
Orbital period
1,441.7 mins
BSTAR
0
Loading maneuver chart data...
Computing Atmospheric mass density...
Loading historical data...
Loading historical data...
Loading historical data...
Loading historical data...
Loading historical data...
Loading historical data...
Loading historical data...

Documentation

Showing up to 5 results
|